This demonstration page uses our WeatherBlox Daily Observations layout. Learn more.

Left ArrowRight Arrow

44.8408, -93.29828

Hourly Observations for April 24, 2017

Temp ( °F °C ) Dew Point ( °F °C ) Humidity (%) Winds ( mph kmh ) Pressure ( in mb ) Visibility ( mi km ) Precip ( " mm )
12:53 am 00:53 Partly Cloudy 51 10.6 39 3.9 64 64 NE 5 7 29.87 1012 10 16 0.00 0.00
1:53 am 01:53 Partly Cloudy 50 10 39 3.9 66 66 ENE 3 6 29.85 1011 10 16 0.00 0.00
2:53 am 02:53 Partly Cloudy 50 10 39 3.9 66 66 ENE 3 6 29.83 1010 10 16 0.00 0.00
3:53 am 03:53 Partly Cloudy 50 10 37 2.8 61 61 SE 5 7 29.83 1010 10 16 0.00 0.00
4:53 am 04:53 Partly Cloudy 55 12.8 33 0.6 44 44 SSE 9 15 29.81 1010 10 16 0.00 0.00
5:53 am 05:53 Mostly Cloudy 56 13.3 33 0.6 42 42 SSE 8 13 29.80 1009 10 16 0.00 0.00
6:53 am 06:53 Cloudy 55 12.8 33 0.6 44 44 S 9 15 29.80 1009 10 16 0.00 0.00
7:53 am 07:53 Cloudy 56 13.3 34 1.1 44 44 S 9 15 29.80 1009 10 16 0.00 0.00
8:53 am 08:53 Mostly Cloudy 58 14.4 35 1.7 42 42 S 12 19 29.79 1009 10 16 0.00 0.00
9:53 am 09:53 Mostly Cloudy 61 16.1 35 1.7 38 38 S 15 24 29.77 1008 10 16 0.00 0.00
10:53 am 10:53 Cloudy 62 16.7 33 0.6 34 34 S 17 28 29.75 1008 10 16 0.00 0.00
11:53 am 11:53 Cloudy 64 17.8 33 0.6 32 32 S 18 30 29.73 1007 10 16 0.00 0.00
12:53 pm 12:53 Cloudy 66 18.9 32 0 28 28 SSE 22 35 29.70 1006 10 16 0.00 0.00
1:53 pm 13:53 Cloudy 69 20.6 32 0 25 25 S 20 31 29.66 1004 10 16 0.00 0.00
2:53 pm 14:53 Cloudy 71 21.7 27 -2.8 19 19 S 22 35 29.62 1003 10 16 0.00 0.00
3:53 pm 15:53 Cloudy 70 21.1 27 -2.8 20 20 S 18 30 29.61 1003 10 16 0.00 0.00
4:53 pm 16:53 Cloudy 69 20.6 28 -2.2 22 22 S 16 26 29.60 1002 10 16 0.00 0.00
5:53 pm 17:53 Cloudy 68 20 31 -0.6 25 25 SSE 9 15 29.57 1001 10 16 0.00 0.00
6:53 pm 18:53 Cloudy 67 19.4 34 1.1 30 30 S 12 19 29.57 1001 10 16 0.00 0.00
7:53 pm 19:53 Cloudy 68 20 31 -0.6 25 25 S 13 20 29.56 1001 10 16 0.00 0.00
8:53 pm 20:53 Cloudy 66 18.9 33 0.6 29 29 SSE 12 19 29.55 1001 10 16 0.00 0.00
9:53 pm 21:53 Cloudy 66 18.9 31 -0.6 27 27 SSE 14 22 29.54 1000 10 16 0.00 0.00
10:53 pm 22:53 Cloudy 66 18.9 31 -0.6 27 27 S 6 9 29.54 1000 10 16 0.00 0.00
11:53 pm 23:53 Cloudy with Light Rain 61 16.1 42 5.6 50 50 S 7 11 29.57 1001 9 14 0.02 0.51

Powered by AerisWeather